Simultaneous Nadir Overpasses (SNOs) Predictions

Prediction of SNOs between NOAA-19 and TERRA Satellite Orbit:

Table of predicted SNOs for the next 14.0 days since TLE Epoch: 10/12/2024
Index Date (NOAA-19) Time (NOAA-19) Lat,Lon (NOAA-19) SZA (NOAA-19 ) Date (TERRA) Time (TERRA) Lat,Lon (TERRA) SZA (TERRA ) Distance(km) Time Diff (sec)
1 10/12/2024 07:04:37 69.30, 60.50 77.11 10/12/2024 07:05:04 69.29, 60.47 77.10 1.55 27
2 10/12/2024 07:55:01 -71.32,-128.94 101.03 10/12/2024 07:53:50 -71.31,-129.00 101.03 2.60 71
3 10/14/2024 10:03:41 68.09, 14.19 76.81 10/14/2024 10:04:34 68.08, 14.18 76.78 0.53 53
4 10/14/2024 10:54:05 -70.12,-175.63 101.36 10/14/2024 10:53:20 -70.13,-175.57 101.34 2.41 45
5 10/16/2024 13:05:10 58.86, -39.10 69.65 10/16/2024 13:06:23 58.74, -38.36 69.35 45.04 73
6 10/16/2024 13:53:01 -69.28, 138.48 101.34 10/16/2024 13:52:42 -69.29, 138.49 101.34 0.42 19
7 10/18/2024 16:51:57 -68.41, 92.63 101.37 10/18/2024 16:52:03 -68.40, 92.59 101.38 2.59 6
8 10/20/2024 19:51:00 -67.13, 46.38 101.77 10/20/2024 19:51:29 -67.13, 46.36 101.78 0.86 29
9 10/20/2024 20:41:13 69.43,-143.27 80.32 10/20/2024 20:40:06 69.43,-143.26 80.33 0.49 67
10 10/22/2024 22:50:04 -65.75, 0.20 102.26 10/22/2024 22:50:55 -65.75, 0.19 102.28 0.31 51
11 10/22/2024 23:40:08 68.58, 170.90 80.29 10/22/2024 23:39:23 68.57, 170.88 80.29 1.36 45
12 10/25/2024 01:49:08 -64.32, -45.87 102.79 10/25/2024 01:50:20 -64.32, -45.88 102.82 0.97 72



Historial Predications of SNOs between NOAA-19 and TERRA
